Regional Weather Roundup
Issued by NWS Cleveland, OH

Home | Current Version | Previous Version | Text Only | Print | Product List | Glossary Off
Versions: 1 2 3 4 5 6 7 8 9 10 11 12 13 14 15 16 17 18 19 20 21 22 23 24 25 26 27 28 29 30 31 32 33 34 35 36 37 38 39 40 41 42 43 44 45 46 47 48 49 50

000
ASUS41 KCLE 061702
RWRCLE
OHIO REGIONAL WEATHER ROUNDUP
NATIONAL WEATHER SERVICE CLEVELAND, OH
100 PM EDT WED MAY 06 2015

NOTE: "FAIR" INDICATES FEW OR NO CLOUDS BELOW 12,000 FEET WITH NO
SIGNIFICANT WEATHER AND/OR OBSTRUCTIONS TO VISIBILITY.

OHZ001>008-015>018-024>027-034-035-043-044-061800-
   NORTHWEST OHIO

CITY           SKY/WX    TMP DP  RH WIND       PRES   REMARKS
DEFIANCE       CLOUDY    60  56  86 NE3       30.24F FOG
FINDLAY        PTSUNNY   69  58  67 NE3       30.22F
TOLEDO EXPRESS CLOUDY    59  54  83 E7        30.24F HAZE
TOLEDO EXEC    CLOUDY    58  54  86 NE7       30.25F
LIMA           MOSUNNY   71  58  63 NW5       30.22F
$$

OHZ009>014-019>023-028>033-038-089-061800-
   NORTHEAST OHIO

CITY           SKY/WX    TMP DP  RH WIND       PRES   REMARKS
CLE-HOPKINS    PTSUNNY   65  58  78 N6        30.25S
CLE-LAKEFRONT  FOG       54  51  90 N6        30.23F VSB 1/4
CUY CO. ARPT   PTSUNNY   72  61  68 N7        30.23F HAZE
LORAIN-ELYRIA  PTSUNNY   67  58  72 VRB6      30.23F
ASHTABULA      CLOUDY    65  59  81 VRB3      30.24F
AKRON-CANTON   PTSUNNY   76  60  57 W8        30.22F HAZE
WOOSTER        MOSUNNY   74  61  63 NW6       30.22F
MANSFIELD      MOSUNNY   75  59  57 NW9       30.22F
YOUNGSTOWN     CLOUDY    76  59  55 NW6       30.21F
$$

OHZ042-051>053-060>062-070>072-077>081-061800-
  SOUTHWEST OHIO

CITY           SKY/WX    TMP DP  RH WIND       PRES   REMARKS
CINC-COVINGTON MOSUNNY   82  52  35 NW3       30.21F
CINC-LUNKEN    MOSUNNY   82  56  40 S3        30.19F
HAMILTON       SUNNY     84  53  34 SW8       30.21F
DAYTON         PTSUNNY   83  56  39 NW7       30.22F
WRIGHT-PAT AFB NOT AVBL
DAYTON GENERAL MOSUNNY   82  54  37 SW8       30.20F
WILMINGTON     MOSUNNY   82  52  35 CALM      30.21F
$$

OHZ036-037-039>041-045>050-054>059-063>069-073>076-082>088-061800-
  CENTRAL AND SOUTHEAST OHIO

CITY           SKY/WX    TMP DP  RH WIND       PRES   REMARKS
COLUMBUS       MOSUNNY   82  57  42 VRB5      30.20F
OSU AIRPORT    SUNNY     82  54  37 NW7       30.20F
BOLTON FIELD   NOT AVBL
RICKENBACK AFB NOT AVBL
NEWARK         SUNNY     82  58  43 VRB7      30.19F
MARION         MOSUNNY   75  60  59 NW7       30.22F
LANCASTER      SUNNY     82  52  35 W6        30.21F
ZANESVILLE     SUNNY     80  56  43 W8        30.20F
NEW PHILLY     SUNNY     80  61  52 W6        30.21F
$$



USA.gov is the U.S. government's official web portal to all federal, state and local government web resources and services.